Temp
15 15 16 16 15 13 13 13 13 13 14 14 14 14 14 13 14 14 14 15 15 15
12 15 15 15 15 14 13 13 13 13 13 13 13 13 13 13 13 13 14 14 14 15
8 13 14 15 15 14 14 13 13 12 12 12 12 12 12 12 13 13 13 13 13 14
5 10 13 13 15 14 13 14 14 13 13 12 12 12 12 12 12 12 12 12 13 13
3 7 11 13 13 15 13 14 14 14 13 13 12 12 12 12 12 12 12 11 12 12
1 3 8 11 13 13 13 13 14 14 14 14 13 13 12 12 12 12 12 12 12 11
-1 0 4 7 11 13 13 13 13 13 13 13 13 13 13 12 13 13 13 13 12 12
-2 -1 1 4 7 11 12 12 13 13 13 13 12 12 13 12 12 12 12 12 12 12
-3 -2 -1 2 4 8 11 12 12 12 12 12 11 12 13 13 12 12 11 11 11 11
-3 -3 -2 -0 2 5 8 11 11 11 11 11 10 11 12 13 12 12 11 11 11 11
-4 -3 -2 -1 0 2 5 8 10 11 11 11 11 11 11 11 11 10 10 10 10 10
-4 -4 -3 -2 -1 0 2 4 6 8 9 9 10 10 10 10 9 9 9 9 9 9
-5 -4 -3 -3 -2 -1 -0 0 2 3 4 5 7 9 9 9 9 8 8 8 8 8
-5 -5 -4 -3 -3 -2 -2 -1 -1 -1 -0 1 2 4 7 8 8 8 8 8 8 8
Height
737 741 745 748 754 759 762 767 771 777 784 790 796 802 808 812 816 821 824 828 831 834
731 734 739 744 750 754 758 762 766 771 776 783 790 796 801 806 810 815 820 824 827 831
727 728 733 738 743 748 753 757 762 766 772 778 783 789 795 800 805 810 814 819 821 826
725 723 727 732 736 742 748 752 756 760 766 772 776 783 789 793 799 804 807 812 815 819
723 720 721 727 730 736 742 746 750 755 761 765 770 776 781 786 793 796 800 804 808 812
723 722 719 721 726 730 737 741 746 750 755 760 764 770 775 780 785 789 793 797 801 804
726 723 721 716 720 725 731 736 741 745 750 755 760 764 769 774 779 782 787 791 795 799
726 724 719 719 716 719 726 730 736 742 746 750 754 758 762 768 772 776 781 785 789 792
729 725 721 717 721 717 721 726 730 736 742 744 748 752 756 760 766 771 775 779 783 786
733 728 724 721 718 717 720 722 726 730 737 739 743 747 752 755 759 764 768 772 776 779
738 734 728 724 721 720 719 720 723 727 732 736 739 743 747 751 755 758 761 765 769 772
743 739 735 729 726 724 722 722 720 724 729 733 736 739 742 746 749 753 756 759 763 766
749 744 739 735 729 726 726 722 723 722 726 729 732 734 738 741 744 747 751 754 757 761
756 751 746 741 738 733 732 728 728 728 728 730 732 732 734 736 739 742 746 750 753 757
Wind_Speed
32 31 26 27 27 29 30 33 39 44 43 39 37 32 26 27 27 27 26 23 23 20
18 31 28 26 25 25 27 29 34 39 42 40 38 35 33 27 28 26 26 24 22 21
13 20 29 31 30 26 26 27 29 35 35 35 38 37 34 29 28 27 26 26 28 24
10 12 22 27 33 28 28 28 28 33 34 33 34 35 34 32 29 28 29 31 33 32
11 6 14 26 30 34 25 27 28 28 30 32 33 33 34 32 30 30 28 30 30 31
13 9 4 14 27 32 31 25 24 26 26 29 29 31 32 35 34 30 29 27 27 29
16 13 8 3 15 27 30 30 25 25 25 26 28 30 30 30 29 29 27 27 27 28
21 14 11 7 4 15 27 29 30 26 24 25 27 30 33 29 29 29 27 28 32 34
24 20 14 9 7 5 17 24 27 29 25 23 24 32 33 32 29 26 26 25 25 24
26 24 21 12 8 2 8 17 24 23 28 25 22 27 31 30 30 31 30 28 30 29
29 25 24 18 12 8 2 8 16 21 22 20 22 27 27 28 29 29 30 29 29 30
30 27 25 24 18 13 9 7 10 13 15 17 19 20 22 25 27 25 25 24 24 25
32 29 29 27 26 20 16 19 16 19 16 12 8 19 21 23 25 23 23 21 21 21
33 29 30 28 30 30 25 28 26 26 25 23 21 13 16 22 26 25 23 23 21 19
Wind_Direction
206 208 209 191 193 192 191 194 200 202 204 205 202 199 196 197 198 204 207 206 202 200
218 204 203 200 197 198 199 199 199 202 204 206 204 201 199 197 200 202 205 210 206 209
252 198 202 203 206 205 203 197 195 199 198 201 203 203 204 204 203 202 204 207 205 210
278 217 205 204 204 204 206 199 199 196 199 199 200 202 200 203 205 204 208 212 213 215
316 273 208 202 200 206 206 199 194 195 196 197 199 199 200 200 204 203 205 210 214 221
346 327 229 195 198 203 212 205 196 194 197 198 196 195 200 202 206 206 207 211 210 215
353 338 314 227 183 195 202 201 197 198 197 198 197 196 198 201 204 205 208 212 213 214
357 347 334 307 193 179 196 196 206 206 203 198 198 197 195 200 201 203 206 214 218 218
5 3 353 347 293 190 187 205 207 210 212 196 199 206 210 210 208 208 210 211 215 218
6 7 9 354 346 315 182 188 195 197 211 205 208 214 212 213 218 216 214 215 219 223
7 7 14 19 15 9 310 176 185 195 205 207 211 226 223 221 221 226 225 224 224 224
6 9 13 20 27 37 54 116 134 164 183 202 216 224 221 215 214 213 218 222 224 229
12 13 14 21 29 41 62 71 88 97 101 101 179 212 213 210 211 208 216 221 224 225
19 15 19 24 32 40 47 66 63 68 72 76 63 67 212 210 210 209 209 215 213 215